Flag for Australia Weather past 2 weeks in Cairns, Queensland, Australia

81 °F

Scattered clouds.

Feels Like: 85 °F
Forecast: 77 / 87 °F
Wind: 7 mph from Southeast

Location: Cairns Airport

Current Time: Nov 29, 2015 at 7:28:57 AM

Latest Report: Nov 29, 2015 at 7:00 AM

Visibility: N/A

Pressure: 29.92 "Hg

Humidity: 74%

Dew point: 72 °F

Location of CairnsLocation

Historic Weather in Cairns — Graph


Cairns temperature yesterday

Maximum temperature yesterday: 88 °F (at 10:30 AM)
Minimum temperature yesterday: 75 °F (at 4:30 AM)
Average temperature yesterday: 82 °F

Past Weeks' High & Low Weather Summary

High90 °F (Nov 18, 12:00 PM)100% (Nov 15, 9:30 PM)30.01 "Hg (Nov 15, 9:30 PM)
Low70 °F (Nov 20, 2:30 AM)35% (Nov 19, 2:00 PM)29.74 "Hg (Nov 15, 1:30 PM)
Average80 °F76%29.86 "Hg
* Reported Nov 14 6:00 AM — Nov 29 6:00 AM, Cairns, Weather by CustomWeather, © 2015

Note: Actual official high and low records may vary slightly from our data, if they occured in-between our weather recording intervals... More about our weather records


Cairns weather history for previous 24 hours

Time TempWeatherWind HumidityBarometerVisibility
6:00 AM
Sun, Nov 29
77 °FScattered clouds.8 mph89%29.89 "HgN/A
5:30 AM75 °FPassing clouds.1 mph94%29.89 "HgN/A
5:00 AM75 °FPassing clouds.2 mph94%29.89 "HgN/A
4:30 AM75 °FPassing clouds.6 mph94%29.86 "HgN/A
4:00 AM75 °FPassing clouds.2 mph94%29.86 "HgN/A
3:30 AM75 °FPassing clouds.No wind94%29.86 "HgN/A
3:00 AM77 °FPassing clouds.3 mph89%29.86 "HgN/A
2:30 AM79 °FPassing clouds.6 mph79%29.86 "HgN/A
2:00 AM79 °FPassing clouds.7 mph84%29.86 "HgN/A
1:30 AM81 °FPassing clouds.6 mph79%29.86 "HgN/A
1:00 AM81 °FPassing clouds.7 mph79%29.86 "HgN/A
12:30 AM81 °FPassing clouds.7 mph79%29.89 "HgN/A
12:00 AM81 °FMostly cloudy.7 mph79%29.89 "HgN/A
11:30 PM
Sat, Nov 28
81 °FPartly cloudy.7 mph79%29.89 "HgN/A
11:00 PM81 °FPassing clouds.7 mph79%29.89 "HgN/A
10:30 PM81 °FPassing clouds.8 mph79%29.89 "HgN/A
10:00 PM81 °FPartly cloudy.8 mph79%29.89 "HgN/A
9:00 PM81 °FPassing clouds.8 mph79%29.89 "HgN/A
8:30 PM82 °FPassing clouds.8 mph74%29.86 "HgN/A
8:00 PM82 °FPassing clouds.10 mph74%29.86 "HgN/A
7:30 PM82 °FPassing clouds.8 mph74%29.86 "HgN/A
7:00 PM82 °FPassing clouds.9 mph74%29.83 "HgN/A
6:00 PM84 °FScattered clouds.10 mph70%29.83 "HgN/A
4:00 PM88 °FScattered clouds.13 mph59%29.80 "HgN/A
3:30 PM86 °FScattered clouds.12 mph66%29.80 "HgN/A
2:30 PM88 °FScattered clouds.15 mph66%29.83 "HgN/A
2:00 PM88 °FScattered clouds.14 mph62%29.83 "HgN/A
1:30 PM88 °FScattered clouds.14 mph62%29.83 "HgN/A
1:00 PM88 °FScattered clouds.14 mph66%29.86 "HgN/A
12:30 PM86 °FScattered clouds.15 mph70%29.86 "HgN/A
12:00 PM86 °FScattered clouds.14 mph70%29.89 "HgN/A
11:00 AM88 °FScattered clouds.10 mph62%29.92 "HgN/A
10:30 AM88 °FPartly sunny.7 mph62%29.92 "HgN/A
10:00 AM86 °FPartly sunny.7 mph66%29.92 "HgN/A
9:00 AM84 °FPartly sunny.6 mph66%29.92 "HgN/A
8:30 AM82 °FPartly sunny.7 mph74%29.92 "HgN/A
8:00 AM82 °FPartly sunny.9 mph74%29.92 "HgN/A
7:30 AM81 °FPartly sunny.9 mph79%29.92 "HgN/A
7:00 AM79 °FPartly sunny.10 mph84%29.92 "HgN/A
Weather by CustomWeather, © 2015

See weather overviewHow to use our weather pages